Home   Weather   Debrecen   Past weeks
Flag for Hungary

Past Weather in Debrecen, Hungary — Yesterday and Last 2 Weeks

Now
34 °F

Clear.


Feels Like: 34 °F
Forecast: 48 / 34 °F
Wind: No wind

Location: Debrecen Airport

Current Time: Feb 20, 2019 at 10:51:10 pm

Latest Report: Feb 20, 2019 at 9:45 pm


Visibility: 10 mi

Pressure: 30.21 "Hg

Humidity: 81%

Dew Point: 28 °F

Location of DebrecenLocation

Past Weather in Debrecen — Graph

°F

Debrecen Temperature Yesterday

Maximum temperature yesterday: 55 °F (at 1:15 pm)
Minimum temperature yesterday: 30 °F (at 4:45 am)
Average temperature yesterday: 44 °F

High & Low Weather Summary for the Past Weeks

 TemperatureHumidityPressure
High57 °F (Feb 18, 3:15 pm)93% (Feb 7, 10:15 pm)30.54 "Hg (Feb 7, 10:15 pm)
Low25 °F (Feb 7, 6:15 am)39% (Feb 12, 11:45 am)29.65 "Hg (Feb 11, 4:45 am)
Average39 °F69%30.23 "Hg
* Reported Feb 6 5:45 am — Feb 20 9:15 pm, Debrecen. Weather by CustomWeather, © 2019

Note: Actual official high and low records may vary slightly from our data, if they occured in-between our weather recording intervals... More about our weather records

Advertising

Debrecen Weather History for the Previous 24 Hours

Scroll right to see more
 ConditionsComfort  
Time TempWeatherWind HumidityBarometerVisibility
9:15 pm
Wed, Feb 20
37 °FClear.No wind75%30.21 "Hg10 mi
8:45 pm41 °FClear.2 mph70%30.21 "Hg10 mi
8:15 pm41 °FClear.No wind70%30.21 "Hg10 mi
7:45 pm39 °FClear.5 mph75%30.21 "Hg10 mi
7:15 pm41 °FClear.5 mph70%30.18 "Hg10 mi
6:45 pm41 °FClear.6 mph70%30.18 "Hg10 mi
6:15 pm45 °FClear.8 mph61%30.18 "Hg10 mi
5:45 pm48 °FClear.10 mph54%30.18 "Hg10 mi
5:15 pm46 °FClear.6 mph57%30.15 "Hg10 mi
4:45 pm48 °FSunny.5 mph54%30.15 "Hg10 mi
4:15 pm50 °FSunny.No wind50%30.15 "Hg10 mi
3:45 pm50 °FSunny.3 mph50%30.15 "Hg10 mi
3:15 pm52 °FSunny.2 mph47%30.15 "Hg10 mi
2:45 pm52 °FPartly sunny.7 mph47%30.15 "HgN/A
2:15 pm54 °FBroken clouds.5 mph44%30.15 "HgN/A
1:45 pm52 °FScattered clouds.6 mph47%30.15 "HgN/A
12:45 pm48 °FClear.5 mph62%30.15 "Hg4 mi
12:15 pm50 °FClear.6 mph62%30.15 "Hg4 mi
11:45 am50 °FClear.3 mph62%30.15 "Hg4 mi
11:41 am50 °FClear.3 mph62%30.15 "Hg4 mi
11:15 am46 °FHaze.5 mph66%30.15 "Hg2 mi
10:45 am45 °FHaze.6 mph71%30.15 "Hg2 mi
10:15 am41 °FFog.5 mph76%30.15 "Hg2 mi
9:45 am39 °FFog.5 mph81%30.12 "Hg2 mi
9:15 am39 °FFog.No wind81%30.12 "Hg1 mi
8:45 am36 °FFog.No wind87%30.12 "Hg1 mi
8:15 am32 °FIce fog.No wind93%30.12 "Hg1 mi
7:45 am28 °FIce fog.1 mph93%30.09 "Hg1 mi
7:15 am27 °FIce fog.No wind93%30.09 "Hg1 mi
6:45 am28 °FIce fog.No wind86%30.07 "Hg1 mi
6:15 am27 °FIce fog.2 mph93%30.07 "Hg1 mi
5:56 am28 °FIce fog.5 mph86%30.09 "Hg1 mi
5:45 am28 °FIce fog.5 mph93%30.07 "Hg2 mi
5:15 am28 °FIce fog.3 mph93%30.07 "Hg2 mi
4:45 am28 °FIce fog.2 mph93%30.07 "Hg2 mi
Weather by CustomWeather, © 2019

See weather overview